QXE2458 KSAN-KSTS

Flight info

Callsign QXE2458
Flight time N/A
Altitude 32000
Route PADRZ2 OROSZ COREZ RGOOD VNYRD1
Aircraft E75L/M-SDE3GILORVW/S

Departure

Time 2026-05-08 01:30
Airport San Diego International Airport (KSAN)

Arrival

Time N/A
Airport Charles M. Schulz Sonoma County Airport (KSTS)
Time Latitude Longitude Altitude Speed Heading
2026-05-08 01:05 32.73223 -117.20236 19 ft 0 kts 194°
2026-05-08 01:16 32.73233 -117.20233 19 ft 4 kts 194°
2026-05-08 01:16 32.73255 -117.20226 21 ft 2 kts 194°
2026-05-08 01:16 32.73279 -117.20227 19 ft 4 kts 147°
2026-05-08 01:17 32.73296 -117.20249 19 ft 4 kts 145°
2026-05-08 01:17 32.73316 -117.20258 21 ft 4 kts 163°
2026-05-08 01:17 32.73338 -117.20265 19 ft 3 kts 163°
2026-05-08 01:17 32.73363 -117.20273 19 ft 4 kts 167°
2026-05-08 01:18 32.73390 -117.20277 20 ft 4 kts 185°
2026-05-08 01:18 32.73411 -117.20271 19 ft 4 kts 204°
2026-05-08 01:18 32.73430 -117.20250 19 ft 4 kts 235°
2026-05-08 01:18 32.73450 -117.20234 20 ft 4 kts 191°
2026-05-08 01:19 32.73471 -117.20240 19 ft 4 kts 111°
2026-05-08 01:19 32.73461 -117.20254 19 ft 4 kts 16°
2026-05-08 01:19 32.73436 -117.20263 19 ft 4 kts 16°
2026-05-08 01:19 32.73413 -117.20270 19 ft 1 kts 16°
2026-05-08 01:20 32.73413 -117.20271 19 ft 0 kts 16°
2026-05-08 01:22 32.73420 -117.20268 20 ft 5 kts 16°
2026-05-08 01:22 32.73486 -117.20246 19 ft 13 kts 15°
2026-05-08 01:22 32.73548 -117.20185 23 ft 12 kts 92°
2026-05-08 01:23 32.73524 -117.20077 20 ft 15 kts 106°
2026-05-08 01:23 32.73494 -117.19952 22 ft 17 kts 105°
2026-05-08 01:23 32.73460 -117.19815 24 ft 18 kts 106°
2026-05-08 01:23 32.73424 -117.19663 21 ft 20 kts 105°
2026-05-08 01:24 32.73383 -117.19495 22 ft 22 kts 107°
2026-05-08 01:24 32.73337 -117.19310 18 ft 25 kts 106°
2026-05-08 01:24 32.73286 -117.19105 19 ft 26 kts 106°
2026-05-08 01:24 32.73243 -117.18926 22 ft 21 kts 106°
2026-05-08 01:25 32.73203 -117.18757 26 ft 22 kts 106°
2026-05-08 01:25 32.73160 -117.18580 19 ft 24 kts 106°
2026-05-08 01:25 32.73112 -117.18380 18 ft 23 kts 105°
2026-05-08 01:25 32.73070 -117.18205 18 ft 23 kts 106°
2026-05-08 01:26 32.73024 -117.18020 15 ft 23 kts 105°
2026-05-08 01:26 32.72992 -117.17888 15 ft 10 kts 104°
2026-05-08 01:26 32.72974 -117.17807 13 ft 6 kts 106°
2026-05-08 01:26 32.72966 -117.17775 15 ft 5 kts 107°
2026-05-08 01:27 32.72953 -117.17726 14 ft 7 kts 106°
2026-05-08 01:27 32.72954 -117.17669 15 ft 2 kts 75°
2026-05-08 01:29 32.72963 -117.17636 16 ft 12 kts 71°
2026-05-08 01:29 32.73027 -117.17604 17 ft 10 kts 287°
2026-05-08 01:29 32.73080 -117.17826 16 ft 64 kts 285°
2026-05-08 01:30 32.73275 -117.18647 19 ft 140 kts 285°
2026-05-08 01:30 32.73572 -117.19845 612 ft 161 kts 287°
2026-05-08 01:30 32.73980 -117.21124 1484 ft 170 kts 297°
2026-05-08 01:30 32.74576 -117.22373 2289 ft 178 kts 301°
2026-05-08 01:31 32.75272 -117.23685 2997 ft 199 kts 304°
2026-05-08 01:31 32.76108 -117.25168 3561 ft 235 kts 304°
2026-05-08 01:31 32.77086 -117.26844 4428 ft 255 kts 305°
2026-05-08 01:31 32.78097 -117.28601 5689 ft 261 kts 304°
2026-05-08 01:32 32.79121 -117.30401 6913 ft 265 kts 304°
2026-05-08 01:32 32.80168 -117.32243 7975 ft 272 kts 306°
2026-05-08 01:32 32.81318 -117.34069 8973 ft 280 kts 310°
2026-05-08 01:32 32.82544 -117.35903 9984 ft 287 kts 310°
2026-05-08 01:33 32.83795 -117.37800 10601 ft 307 kts 310°
2026-05-08 01:33 32.85150 -117.39880 11114 ft 329 kts 310°
2026-05-08 01:33 32.86587 -117.42102 11696 ft 347 kts 309°
2026-05-08 01:33 32.88069 -117.44407 12595 ft 354 kts 309°
2026-05-08 01:34 32.89577 -117.46750 13582 ft 359 kts 309°
2026-05-08 01:34 32.91107 -117.49132 14478 ft 364 kts 309°
2026-05-08 01:34 32.92662 -117.51550 15160 ft 372 kts 309°
2026-05-08 01:34 32.94240 -117.54005 15128 ft 366 kts 309°
2026-05-08 01:35 32.95760 -117.56374 14858 ft 359 kts 309°
2026-05-08 01:35 32.97273 -117.58739 14862 ft 357 kts 309°
2026-05-08 01:35 32.98790 -117.61094 15133 ft 365 kts 309°
2026-05-08 01:35 33.00338 -117.63506 15884 ft 370 kts 309°
2026-05-08 01:36 33.01910 -117.65970 16740 ft 376 kts 309°
2026-05-08 01:36 33.03499 -117.68460 17613 ft 380 kts 309°
2026-05-08 01:36 33.05110 -117.70980 18440 ft 384 kts 309°
2026-05-08 01:36 33.06776 -117.73482 19124 ft 387 kts 315°
2026-05-08 01:37 33.08878 -117.75455 19819 ft 386 kts 330°
2026-05-08 01:37 33.11193 -117.77097 20551 ft 389 kts 332°
2026-05-08 01:37 33.13549 -117.78723 21259 ft 393 kts 332°
2026-05-08 01:37 33.15930 -117.80358 21953 ft 397 kts 332°
2026-05-08 01:38 33.18293 -117.81988 22590 ft 400 kts 332°
2026-05-08 01:38 33.20717 -117.83661 23203 ft 404 kts 332°
2026-05-08 01:38 33.23157 -117.85342 23766 ft 407 kts 332°
2026-05-08 01:38 33.25623 -117.87043 24283 ft 410 kts 332°
2026-05-08 01:39 33.28099 -117.88752 24785 ft 413 kts 332°
2026-05-08 01:39 33.30595 -117.90471 25285 ft 415 kts 332°
2026-05-08 01:39 33.33101 -117.92197 25843 ft 416 kts 332°
2026-05-08 01:39 33.35591 -117.93926 26552 ft 413 kts 332°
2026-05-08 01:40 33.38069 -117.95651 27241 ft 410 kts 332°
2026-05-08 01:40 33.40500 -117.97338 27851 ft 409 kts 332°
2026-05-08 01:40 33.42965 -117.99044 28420 ft 409 kts 332°
2026-05-08 01:40 33.45424 -118.00744 29032 ft 408 kts 332°
2026-05-08 01:41 33.47877 -118.02442 29630 ft 406 kts 332°
2026-05-08 01:41 33.50318 -118.04132 30207 ft 405 kts 332°
2026-05-08 01:41 33.52755 -118.05821 30695 ft 404 kts 332°
2026-05-08 01:41 33.55180 -118.07500 31161 ft 403 kts 332°
2026-05-08 01:42 33.57609 -118.09180 31618 ft 402 kts 332°
2026-05-08 01:42 33.60026 -118.10857 32086 ft 399 kts 332°
2026-05-08 01:42 33.62457 -118.12538 32133 ft 409 kts 332°
2026-05-08 01:42 33.64964 -118.14247 32116 ft 420 kts 332°
2026-05-08 01:43 33.67508 -118.15980 32069 ft 431 kts 332°
2026-05-08 01:43 33.70147 -118.17784 32018 ft 442 kts 332°
2026-05-08 01:43 33.72847 -118.19634 31989 ft 450 kts 332°
2026-05-08 01:44 33.78325 -118.23397 32005 ft 455 kts 332°
2026-05-08 01:44 33.83822 -118.27182 32015 ft 455 kts 332°
2026-05-08 01:45 33.89323 -118.30965 32006 ft 455 kts 332°
2026-05-08 01:45 33.94779 -118.34723 32011 ft 455 kts 332°
2026-05-08 01:46 34.00277 -118.38523 32025 ft 456 kts 332°
2026-05-08 01:46 34.05791 -118.42341 32016 ft 457 kts 332°
2026-05-08 01:47 34.11300 -118.46158 32015 ft 457 kts 332°
2026-05-08 01:47 34.16805 -118.49981 31990 ft 457 kts 332°
2026-05-08 01:48 34.25075 -118.55731 31990 ft 457 kts 332°
2026-05-08 01:48 34.30546 -118.59543 31991 ft 457 kts 332°
2026-05-08 01:49 34.36051 -118.63387 31992 ft 457 kts 331°
2026-05-08 01:49 34.41560 -118.67240 31986 ft 456 kts 331°
2026-05-08 01:50 34.47072 -118.71098 32002 ft 458 kts 331°
2026-05-08 01:50 34.52587 -118.74966 32020 ft 458 kts 331°
2026-05-08 01:51 34.58099 -118.78837 32031 ft 458 kts 331°
2026-05-08 01:51 34.63540 -118.82662 32037 ft 455 kts 332°
2026-05-08 01:52 34.69007 -118.86512 32052 ft 456 kts 332°
2026-05-08 01:52 34.74486 -118.90379 32049 ft 456 kts 332°
2026-05-08 01:53 34.79953 -118.94242 32048 ft 455 kts 332°
2026-05-08 01:53 34.85425 -118.98112 32036 ft 456 kts 332°
2026-05-08 01:54 34.90905 -119.01994 32036 ft 455 kts 331°
2026-05-08 01:54 34.96349 -119.05861 32038 ft 455 kts 331°
2026-05-08 01:55 35.01845 -119.09768 32028 ft 457 kts 331°
2026-05-08 01:55 35.07344 -119.13685 32026 ft 458 kts 331°
2026-05-08 01:56 35.12843 -119.17605 32009 ft 457 kts 331°
2026-05-08 01:56 35.18349 -119.21539 32014 ft 459 kts 330°
2026-05-08 01:57 35.23827 -119.25460 31999 ft 459 kts 330°
2026-05-08 01:57 35.29338 -119.29406 31995 ft 459 kts 330°
2026-05-08 01:58 35.34842 -119.33357 31988 ft 459 kts 330°
2026-05-08 01:58 35.40345 -119.37314 31996 ft 459 kts 330°
2026-05-08 01:59 35.45849 -119.41275 31992 ft 459 kts 330°
2026-05-08 01:59 35.51315 -119.45216 31992 ft 459 kts 330°
2026-05-08 02:00 35.56709 -119.49401 31995 ft 460 kts 323°
2026-05-08 02:00 35.61648 -119.54395 31989 ft 460 kts 321°
2026-05-08 02:01 35.66556 -119.59454 31989 ft 461 kts 321°
2026-05-08 02:01 35.71468 -119.64505 31989 ft 460 kts 321°
2026-05-08 02:02 35.76346 -119.69524 31988 ft 460 kts 321°
2026-05-08 02:02 35.81254 -119.74580 31994 ft 459 kts 321°
2026-05-08 02:03 35.86157 -119.79640 31992 ft 460 kts 321°
2026-05-08 02:03 35.91199 -119.84473 32011 ft 460 kts 332°
2026-05-08 02:04 35.97066 -119.87448 31983 ft 460 kts 340°
2026-05-08 02:04 36.03051 -119.90210 31989 ft 459 kts 340°
2026-05-08 02:05 36.09025 -119.92991 31999 ft 459 kts 340°
2026-05-08 02:05 36.14994 -119.95784 31998 ft 459 kts 340°
2026-05-08 02:06 36.20920 -119.98563 31995 ft 458 kts 340°
2026-05-08 02:06 36.26845 -120.01460 32019 ft 458 kts 333°
2026-05-08 02:07 36.29480 -120.03689 32013 ft 459 kts 320°
2026-05-08 02:07 36.31856 -120.06337 32035 ft 460 kts 317°
2026-05-08 02:07 36.36528 -120.11771 31998 ft 459 kts 317°
2026-05-08 02:08 36.41182 -120.17173 32017 ft 461 kts 317°
2026-05-08 02:08 36.45869 -120.22609 32016 ft 461 kts 317°
2026-05-08 02:09 36.50546 -120.28045 32008 ft 461 kts 317°
2026-05-08 02:09 36.54858 -120.33043 32043 ft 463 kts 317°